PAL336 RPLL-ZSPD

Flight info

Callsign PAL336
Flight time N/A
Altitude 38000
Route CAB2R CAB A461 NOMAN DCT DOTMI/K0902S1130 A470 LJG B221 SHZ W58 BK BK83A
Aircraft B77W/H-SDE1E2E3FGHIJ2J3J4J5M1RWXY/LB1D1

Departure

Time 2026-05-01 15:08
Airport Ninoy Aquino International Airport (RPLL)

Arrival

Time N/A
Airport Shanghai Pudong International Airport (ZSPD)
Time Latitude Longitude Altitude Speed Heading
2026-05-01 14:26 14.50432 121.00509 74 ft 0 kts 307°
2026-05-01 15:00 14.50407 121.00543 63 ft 4 kts 307°
2026-05-01 15:00 14.50393 121.00562 63 ft 2 kts 307°
2026-05-01 15:00 14.50379 121.00583 63 ft 4 kts 296°
2026-05-01 15:01 14.50370 121.00607 63 ft 4 kts 276°
2026-05-01 15:01 14.50371 121.00631 63 ft 4 kts 250°
2026-05-01 15:01 14.50381 121.00653 63 ft 4 kts 240°
2026-05-01 15:01 14.50392 121.00673 63 ft 1 kts 240°
2026-05-01 15:04 14.50389 121.00668 63 ft 6 kts 240°
2026-05-01 15:04 14.50354 121.00605 63 ft 12 kts 241°
2026-05-01 15:04 14.50307 121.00517 68 ft 15 kts 241°
2026-05-01 15:05 14.50252 121.00417 64 ft 14 kts 241°
2026-05-01 15:05 14.50219 121.00357 63 ft 10 kts 233°
2026-05-01 15:05 14.50156 121.00339 69 ft 10 kts 181°
2026-05-01 15:05 14.50097 121.00290 64 ft 13 kts 236°
2026-05-01 15:06 14.50044 121.00195 69 ft 17 kts 240°
2026-05-01 15:06 14.49982 121.00083 66 ft 18 kts 240°
2026-05-01 15:06 14.49926 120.99988 65 ft 5 kts 228°
2026-05-01 15:06 14.49898 120.99972 67 ft 6 kts 195°
2026-05-01 15:07 14.49846 120.99983 63 ft 9 kts 154°
2026-05-01 15:07 14.49816 121.00045 70 ft 13 kts 87°
2026-05-01 15:07 14.49859 121.00140 63 ft 21 kts 60°
2026-05-01 15:07 14.50034 121.00458 63 ft 91 kts 60°
2026-05-01 15:08 14.50477 121.01256 72 ft 163 kts 60°
2026-05-01 15:08 14.51113 121.02386 388 ft 187 kts 62°
2026-05-01 15:08 14.51792 121.03554 1145 ft 193 kts 60°
2026-05-01 15:08 14.52450 121.04693 2123 ft 183 kts 60°
2026-05-01 15:09 14.53131 121.05866 2558 ft 205 kts 61°
2026-05-01 15:09 14.53915 121.07221 2809 ft 234 kts 60°
2026-05-01 15:09 14.54781 121.08712 3409 ft 247 kts 60°
2026-05-01 15:09 14.55674 121.10243 4182 ft 256 kts 61°
2026-05-01 15:10 14.56614 121.11832 4985 ft 263 kts 60°
2026-05-01 15:10 14.59289 121.14400 6462 ft 280 kts 19°
2026-05-01 15:10 14.61239 121.14626 7283 ft 285 kts
2026-05-01 15:11 14.63230 121.14531 8108 ft 288 kts 358°
2026-05-01 15:11 14.67249 121.14209 9838 ft 292 kts 357°
2026-05-01 15:11 14.69295 121.14038 10488 ft 301 kts 357°
2026-05-01 15:12 14.71470 121.13797 10737 ft 328 kts 355°
2026-05-01 15:12 14.76327 121.13096 11207 ft 377 kts 353°
2026-05-01 15:12 14.78966 121.12695 11845 ft 389 kts 353°
2026-05-01 15:13 14.87188 121.11454 14292 ft 406 kts 354°
2026-05-01 15:14 14.92833 121.10614 15830 ft 414 kts 353°
2026-05-01 15:14 14.95667 121.10193 16581 ft 418 kts 353°
2026-05-01 15:14 15.01484 121.09333 18048 ft 427 kts 353°
2026-05-01 15:15 15.07440 121.08450 19313 ft 436 kts 353°
2026-05-01 15:15 15.13514 121.07548 20515 ft 446 kts 352°
2026-05-01 15:16 15.19719 121.06629 21686 ft 455 kts 352°
2026-05-01 15:16 15.26015 121.05695 22798 ft 465 kts 352°
2026-05-01 15:17 15.32472 121.04736 23843 ft 472 kts 351°
2026-05-01 15:18 15.42313 121.03273 25317 ft 480 kts 351°
2026-05-01 15:18 15.45607 121.02675 25759 ft 483 kts 346°
2026-05-01 15:19 15.55006 120.98920 27070 ft 489 kts 331°
2026-05-01 15:19 15.61072 120.95639 27916 ft 494 kts 330°
2026-05-01 15:19 15.64126 120.93979 28331 ft 497 kts 330°
2026-05-01 15:20 15.70296 120.90658 29106 ft 502 kts 330°
2026-05-01 15:20 15.73409 120.88997 29468 ft 504 kts 330°
2026-05-01 15:20 15.76535 120.87334 29848 ft 506 kts 330°
2026-05-01 15:21 15.79667 120.85668 30297 ft 504 kts 330°
2026-05-01 15:21 15.82735 120.84036 30797 ft 501 kts 330°
2026-05-01 15:21 15.85830 120.82388 31314 ft 499 kts 330°
2026-05-01 15:21 15.88912 120.80748 31840 ft 496 kts 330°
2026-05-01 15:22 15.95019 120.77491 32817 ft 492 kts 330°
2026-05-01 15:22 15.98066 120.75864 33301 ft 491 kts 330°
2026-05-01 15:22 16.01091 120.74251 33785 ft 489 kts 330°
2026-05-01 15:23 16.04114 120.72637 34220 ft 487 kts 329°
2026-05-01 15:23 16.07082 120.71051 34661 ft 485 kts 329°
2026-05-01 15:23 16.10071 120.69453 35126 ft 482 kts 329°
2026-05-01 15:23 16.13043 120.67865 35545 ft 480 kts 329°
2026-05-01 15:24 16.16008 120.66279 35957 ft 477 kts 329°
2026-05-01 15:24 16.18956 120.64703 36345 ft 476 kts 329°
2026-05-01 15:24 16.21895 120.63131 36731 ft 475 kts 329°
2026-05-01 15:24 16.24828 120.61561 37110 ft 473 kts 329°
2026-05-01 15:25 16.27751 120.59996 37469 ft 472 kts 329°
2026-05-01 15:25 16.30624 120.58456 37853 ft 470 kts 328°
2026-05-01 15:25 16.33539 120.56889 37980 ft 474 kts 328°
2026-05-01 15:25 16.36467 120.55319 37975 ft 470 kts 328°
2026-05-01 15:26 16.42235 120.52233 37975 ft 463 kts 328°
2026-05-01 15:26 16.47954 120.49163 37971 ft 462 kts 328°
2026-05-01 15:27 16.53626 120.46116 37968 ft 462 kts 328°
2026-05-01 15:28 16.62209 120.41499 37959 ft 463 kts 328°
2026-05-01 15:28 16.67946 120.38414 37960 ft 464 kts 328°
2026-05-01 15:29 16.73322 120.34784 37947 ft 459 kts 317°
2026-05-01 15:29 16.75722 120.32657 37946 ft 457 kts 312°
2026-05-01 15:30 16.84474 120.23071 37930 ft 457 kts 309°
2026-05-01 15:31 16.97553 120.08661 37918 ft 458 kts 309°
2026-05-01 15:32 17.06325 119.99020 37920 ft 457 kts 309°
2026-05-01 15:34 17.19422 119.84595 37910 ft 456 kts 309°